Location: Brunsen
(51.8651°N, 9.8610°E)
Time: 11:10:55
(UTC+00:00)

Cosmos 468 Rocket - Pass Details

Date: 23 May 2024
Orbit: 742 x 777 km, 74.0° (Epoch: 23 June)

Event Time Altitude Azimuth Distance (km) Brightness Sun altitude
Rises 00:39:26 0° 331° (NNW) 3,271 7.9 -15.3°
Reaches altitude 10° 00:41:54 10° 325° (NW) 2,336 7.0 -15.2°
Maximum altitude 00:46:55 44° 255° (WSW) 1,061 4.5 -14.9°
Enters shadow 00:49:51 23° 195° (SSW) 1,611 5.0 -14.7°
